Погода в Пуштулиме

Россия / Алтайский край     53°12′01″N   86°26′02″E
темп.,
°C
ветер,
м/с
пор.,
м/с
влажн.,
%
обл.,
%
осадки,
мм/ч
давл.,
гПа
погр.,
м
6 марта, сб
сб601:00−4зюз82068100 0.0 10251226
04:00−4юз61875100 0.0 10241398
07:00−6юз41481100 0.0 1024890
10:00−5ююз31778100 0.0 10221166
13:00−3юз51667100 0.0 10201194
16:00−2юз61765100 0.0 10171326
19:00−3ююз31478100 0.0 1017732
22:00−4юз41683100 0.0 10171058
7 марта, вс
вс701:00−4юз41685100 0.0 1017993
04:00−4юз41584100 0.0 1016987
07:00−5юз51383100 0.0 1018697
10:00−4юз51190100 0.2 1019613
13:00−3юз5993100 0.9 1020699
16:00−2зюз4894100 0.9 1021684
19:00−3юз2697100 1.7 1022317
22:00−5ююз229895 0.3 102434
8 марта, пн
пн801:00−6ю129798 0.4 102426
04:00−8юв1295100 0.0 102221
07:00−8вюв229398 0.0 102134
10:00−4юв2585100 0.0 1018186
13:000ююв3589100 0.0 1015281
16:00+1ю3696100 0.0 1013310
19:00−2ю2690100 0.0 1013131
22:00−1юз41681100 0.0 1014879
9 марта, вт
вт901:00−1зюз71589100 0.0 10171013
04:00−2з51490100 0.6 10201084
07:00−10з3792100 0.6 1024249
10:00−9зюз268996 0.0 1026296
13:00−6зюз368183 0.0 1027511
16:00−5юз247628 0.0 1027531
19:00−9юз018952 0.0 102721
22:00−9юв128974 0.0 102621
10 марта, ср
ср1001:00−8вюв129586 0.0 102321
04:00−6юв239297 0.0 102057
07:00−8юв129171 0.0 101922
10:00−2ююз2693100 0.2 1017225
13:000ю24100100 0.3 1015288
16:00+1ююв249999 0.0 1014307
19:00−2вюв129796 0.0 101221
22:00−2в2390100 0.0 101081